| time (UTC) | temp F | wind direction | speed MPH | gust MPH | rain 1hr in | rain 24hr in | rain mn in | humidity % | barometer mb |
| 20260508094516 | 44 | 0.0 | 0.0 | 0.00 | 0.04 | 0.00 | 94 | 1015.2 | |
| 20260508093016 | 44 | 0.0 | 0.0 | 0.00 | 0.04 | 0.00 | 94 | 1015.1 | |
| 20260508091516 | 45 | 0.0 | 0.0 | 0.00 | 0.04 | 0.00 | 94 | 1015.0 | |
| 20260508090016 | 45 | 0.0 | 1.0 | 0.00 | 0.04 | 0.00 | 95 | 1014.8 | |
| 20260508084516 | 45 | 0.0 | 2.0 | 0.00 | 0.04 | 0.00 | 94 | 1014.7 | |
| 20260508083016 | 45 | 0.0 | 2.0 | 0.00 | 0.04 | 0.00 | 94 | 1014.6 | |
| 20260508081516 | 45 | 0.0 | 2.0 | 0.00 | 0.04 | 0.00 | 94 | 1014.3 | |
| 20260508080016 | 45 | 0.0 | 0.0 | 0.00 | 0.04 | 0.00 | 94 | 1014.3 | |
| 20260508074516 | 45 | 0.0 | 0.0 | 0.00 | 0.04 | 0.00 | 94 | 1014.0 | |
| 20260508073016 | 45 | 0.0 | 3.0 | 0.00 | 0.04 | 0.00 | 94 | 1014.0 | |
| 20260508071516 | 45 | 0.0 | 0.0 | 0.00 | 0.04 | 0.00 | 93 | 1013.7 | |
| 20260508070016 | 45 | 0.0 | 0.0 | 0.00 | 0.04 | 0.00 | 93 | 1013.7 | |
| 20260508064516 | 45 | 0.0 | 0.0 | 0.00 | 0.04 | 0.00 | 93 | 1013.8 | |
| 20260508063036 | 45 | 0.0 | 0.0 | 0.00 | 0.04 | 0.00 | 93 | 1013.6 | |
| 20260508061516 | 45 | 0.0 | 0.0 | 0.00 | 0.04 | 0.00 | 93 | 1013.4 | |
| 20260508060016 | 46 | 0.0 | 0.0 | 0.00 | 0.04 | 0.00 | 93 | 1013.2 | |
| 20260508054516 | 46 | 0.0 | 0.0 | 0.00 | 0.04 | 0.00 | 92 | 1013.1 | |
| 20260508053016 | 46 | 0.0 | 0.0 | 0.00 | 0.04 | 0.00 | 92 | 1013.1 | |
| 20260508051556 | 47 | 0.0 | 0.0 | 0.00 | 0.04 | 0.00 | 92 | 1013.1 | |
| 20260508050016 | 47 | 0.0 | 0.0 | 0.00 | 0.04 | 0.00 | 92 | 1013.1 | |
| 20260508044515 | 47 | 0.0 | 0.0 | 0.00 | 0.04 | 0.00 | 92 | 1013.0 | |
| 20260508043016 | 48 | 0.0 | 0.0 | 0.00 | 0.04 | 0.00 | 92 | 1012.9 | |
| 20260508041516 | 48 | 0.0 | 1.0 | 0.00 | 0.04 | 0.00 | 92 | 1012.8 | |
| 20260508040015 | 48 | 0.0 | 0.0 | 0.00 | 0.04 | 0.04 | 92 | 1012.6 | |
| 20260508034516 | 49 | 0.0 | 0.0 | 0.00 | 0.04 | 0.04 | 92 | 1012.5 | |
| 20260508033016 | 49 | 0.0 | 0.0 | 0.00 | 0.04 | 0.04 | 92 | 1012.6 | |
| 20260508031516 | 49 | 0.0 | 0.0 | 0.00 | 0.04 | 0.04 | 92 | 1012.6 | |
| 20260508030016 | 49 | 0.0 | 0.0 | 0.00 | 0.04 | 0.04 | 92 | 1012.4 | |
| 20260508024516 | 49 | 0.0 | 0.0 | 0.00 | 0.04 | 0.04 | 92 | 1012.4 | |
| 20260508023016 | 49 | 0.0 | 0.0 | 0.00 | 0.04 | 0.04 | 91 | 1012.3 | |
| 20260508021517 | 49 | 0.0 | 0.0 | 0.00 | 0.04 | 0.04 | 91 | 1012.4 | |
| 20260508020016 | 50 | 0.0 | 0.0 | 0.00 | 0.04 | 0.04 | 90 | 1012.2 | |
| 20260508014516 | 50 | 0.0 | 0.0 | 0.00 | 0.04 | 0.04 | 90 | 1011.9 | |
| 20260508013016 | 51 | 0.0 | 0.0 | 0.00 | 0.04 | 0.04 | 90 | 1012.1 | |
| 20260508011516 | 51 | 0.0 | 0.0 | 0.00 | 0.04 | 0.04 | 90 | 1012.1 | |
| 20260508010016 | 52 | 0.0 | 0.0 | 0.00 | 0.04 | 0.04 | 90 | 1011.8 | |
| 20260508004516 | 52 | 0.0 | 0.0 | 0.00 | 0.04 | 0.04 | 89 | 1011.7 | |
| 20260508003016 | 52 | 0.0 | 0.0 | 0.00 | 0.04 | 0.04 | 89 | 1011.6 | |
| 20260508001516 | 53 | 0.0 | 0.0 | 0.00 | 0.04 | 0.04 | 88 | 1011.5 | |
| 20260508000016 | 53 | 0.0 | 1.0 | 0.00 | 0.04 | 0.04 | 88 | 1011.1 | |
| 20260507234516 | 53 | 0.0 | 1.0 | 0.00 | 0.04 | 0.04 | 87 | 1011.1 | |
| 20260507233016 | 53 | 0.0 | 1.0 | 0.00 | 0.04 | 0.04 | 86 | 1010.9 | |
| 20260507231516 | 54 | 0.0 | 2.0 | 0.00 | 0.04 | 0.04 | 86 | 1010.6 | |
| 20260507230016 | 54 | 0.0 | 1.0 | 0.00 | 0.04 | 0.04 | 87 | 1010.7 | |
| 20260507224516 | 54 | 0.0 | 2.0 | 0.00 | 0.04 | 0.04 | 86 | 1010.5 | |
| 20260507223015 | 54 | 0.0 | 3.0 | 0.00 | 0.04 | 0.04 | 86 | 1010.7 | |
| 20260507221516 | 54 | 0.0 | 2.0 | 0.00 | 0.04 | 0.04 | 86 | 1010.5 | |
| 20260507220016 | 53 | 0.0 | 2.0 | 0.00 | 0.04 | 0.04 | 85 | 1010.3 | |
| 20260507214516 | 54 | 0.0 | 3.0 | 0.00 | 0.04 | 0.04 | 86 | 1010.6 | |
| 20260507213016 | 54 | 0 | 1.0 | 3.0 | 0.00 | 0.04 | 0.04 | 85 | 1010.4 |
| 20260507211515 | 54 | 0 | 1.0 | 4.0 | 0.01 | 0.04 | 0.04 | 84 | 1010.2 |
| 20260507210015 | 55 | 0.0 | 2.0 | 0.02 | 0.04 | 0.04 | 86 | 1010.4 | |
| 20260507204515 | 55 | 0.0 | 1.0 | 0.03 | 0.04 | 0.04 | 85 | 1010.6 | |
| 20260507203015 | 55 | 0.0 | 1.0 | 0.03 | 0.04 | 0.04 | 84 | 1010.8 | |
| 20260507201515 | 55 | 0.0 | 2.0 | 0.02 | 0.03 | 0.03 | 83 | 1010.5 | |
| 20260507200015 | 56 | 0.0 | 1.0 | 0.01 | 0.02 | 0.02 | 80 | 1010.8 | |
| 20260507194515 | 56 | 0.0 | 1.0 | 0.00 | 0.01 | 0.01 | 77 | 1010.7 | |
| 20260507193015 | 56 | 0.0 | 2.0 | 0.00 | 0.01 | 0.01 | 77 | 1010.9 | |
| 20260507191515 | 56 | 0.0 | 2.0 | 0.00 | 0.01 | 0.01 | 77 | 1011.3 | |
| 20260507190036 | 56 | 0.0 | 1.0 | 0.00 | 0.01 | 0.01 | 77 | 1011.1 | |
| 20260507184515 | 56 | 0.0 | 1.0 | 0.00 | 0.01 | 0.01 | 76 | 1011.2 | |
| 20260507183015 | 56 | 0.0 | 0.0 | 0.00 | 0.01 | 0.01 | 76 | 1011.3 | |
| 20260507181515 | 56 | 0.0 | 2.0 | 0.00 | 0.01 | 0.01 | 76 | 1011.3 | |
| 20260507180035 | 56 | 0 | 1.0 | 2.0 | 0.00 | 0.01 | 0.01 | 77 | 1011.2 |
| 20260507174517 | 56 | 0.0 | 2.0 | 0.00 | 0.01 | 0.01 | 76 | 1011.5 | |
| 20260507173017 | 55 | 0 | 1.0 | 3.0 | 0.00 | 0.01 | 0.01 | 78 | 1011.6 |
| 20260507171517 | 55 | 0 | 1.0 | 3.0 | 0.00 | 0.01 | 0.01 | 80 | 1012.0 |
| 20260507170017 | 55 | 0 | 1.0 | 2.0 | 0.00 | 0.01 | 0.01 | 82 | 1012.1 |
| 20260507164517 | 55 | 0.0 | 1.0 | 0.00 | 0.01 | 0.01 | 84 | 1012.2 | |
| 20260507163017 | 55 | 0.0 | 2.0 | 0.00 | 0.01 | 0.01 | 85 | 1012.2 | |
| 20260507161517 | 55 | 0 | 1.0 | 3.0 | 0.00 | 0.01 | 0.01 | 86 | 1012.5 |
| 20260507160017 | 55 | 0.0 | 2.0 | 0.01 | 0.01 | 0.01 | 86 | 1012.6 | |
| 20260507154517 | 55 | 0.0 | 2.0 | 0.01 | 0.01 | 0.01 | 84 | 1012.8 | |
| 20260507153017 | 56 | 0.0 | 2.0 | 0.01 | 0.01 | 0.01 | 84 | 1012.7 | |
| 20260507151517 | 56 | 0.0 | 1.0 | 0.01 | 0.01 | 0.01 | 83 | 1012.4 | |
| 20260507150017 | 56 | 0 | 1.0 | 4.0 | 0.00 | 0.00 | 0.00 | 80 | 1012.7 |
| 20260507144517 | 57 | 0 | 1.0 | 4.0 | 0.00 | 0.01 | 0.00 | 78 | 1012.3 |
| 20260507143017 | 57 | 0 | 1.0 | 3.0 | 0.00 | 0.03 | 0.00 | 79 | 1012.5 |
| 20260507141536 | 57 | 0 | 1.0 | 3.0 | 0.00 | 0.05 | 0.00 | 79 | 1012.7 |
| 20260507140017 | 57 | 0 | 1.0 | 3.0 | 0.00 | 0.06 | 0.00 | 79 | 1012.7 |
| 20260507134517 | 57 | 0 | 1.0 | 3.0 | 0.00 | 0.08 | 0.00 | 78 | 1012.7 |
| 20260507133016 | 58 | 0 | 1.0 | 5.0 | 0.00 | 0.08 | 0.00 | 77 | 1012.6 |
| 20260507131517 | 58 | 0 | 1.0 | 4.0 | 0.00 | 0.08 | 0.00 | 79 | 1012.4 |
| 20260507130017 | 57 | 0 | 1.0 | 3.0 | 0.00 | 0.08 | 0.00 | 83 | 1012.3 |
| 20260507124516 | 57 | 0 | 1.0 | 3.0 | 0.00 | 0.08 | 0.00 | 84 | 1012.5 |
| 20260507123017 | 57 | 0 | 1.0 | 3.0 | 0.00 | 0.08 | 0.00 | 84 | 1012.5 |
| 20260507121517 | 57 | 0 | 1.0 | 3.0 | 0.00 | 0.08 | 0.00 | 84 | 1012.3 |
| 20260507120036 | 57 | 0 | 1.0 | 4.0 | 0.00 | 0.08 | 0.00 | 83 | 1012.2 |
| 20260507114516 | 57 | 0 | 1.0 | 3.0 | 0.00 | 0.08 | 0.00 | 83 | 1012.2 |
| 20260507113016 | 57 | 0 | 1.0 | 4.0 | 0.00 | 0.08 | 0.00 | 82 | 1012.0 |
| 20260507111536 | 57 | 0.0 | 3.0 | 0.00 | 0.08 | 0.00 | 81 | 1011.8 | |
| 20260507110036 | 57 | 0.0 | 2.0 | 0.00 | 0.08 | 0.00 | 81 | 1011.9 | |
| 20260507104516 | 57 | 0.0 | 3.0 | 0.00 | 0.08 | 0.00 | 80 | 1011.6 | |
| 20260507103016 | 57 | 0 | 1.0 | 4.0 | 0.00 | 0.08 | 0.00 | 79 | 1011.4 |
| 20260507101517 | 57 | 0.0 | 2.0 | 0.00 | 0.08 | 0.00 | 79 | 1010.9 | |
| 20260507100016 | 57 | 0.0 | 4.0 | 0.00 | 0.08 | 0.00 | 79 | 1011.4 |